DW9882 Weather Reports


Display with metric or nautical units.
time (UTC)temp
F
wind
direction
speed
MPH
gust
MPH
rain 1hr
in
rain 24hr
in
rain mn
in
humidity
%
barometer
mb
20260905010205 87 96 0.0 1.0 0.00 0.00 0.00 25 1016.7
20260905005705 87 96 1.0 1.0 0.00 0.00 0.00 25 1016.7
20260905005205 88 124 0.0 3.0 0.00 0.00 0.00 25 1016.7
20260905004705 88 92 1.0 3.0 0.00 0.00 0.00 24 1016.7
20260905004205 88 122 1.0 3.0 0.00 0.00 0.00 24 1016.7
20260905003705 89 110 1.0 6.0 0.00 0.00 0.00 23 1016.7
20260905003206 89 111 2.0 7.0 0.00 0.00 0.00 23 1016.7
20260905002707 89 102 0.0 2.0 0.00 0.00 0.00 24 1016.7
20260905002205 90 101 1.0 3.0 0.00 0.00 0.00 23 1016.6
20260905001705 90 111 1.0 3.0 0.00 0.00 0.00 24 1016.6
20260905001205 91 112 1.0 3.0 0.00 0.00 0.00 23 1016.5
20260905000706 91 111 1.0 6.0 0.00 0.00 0.00 22 1016.5
20260904235706 92 121 2.0 3.0 0.00 0.00 0.00 21 1016.5
20260904235205 92 99 2.0 5.0 0.00 0.00 0.00 22 1016.5
20260904234705 92 90 2.0 3.0 0.00 0.00 0.00 21 1016.5
20260904234205 93 140 1.0 3.0 0.00 0.00 0.00 21 1016.4
20260904233705 93 68 1.0 3.0 0.00 0.00 0.00 21 1016.4
20260904233205 93 62 2.0 5.0 0.00 0.00 0.00 20 1016.3
20260904232705 93 135 1.0 3.0 0.00 0.00 0.00 22 1016.3
20260904232205 94 112 0.0 3.0 0.00 0.00 0.00 23 1016.2
20260904231705 94 108 2.0 9.0 0.00 0.00 0.00 20 1016.2
20260904231206 94 121 0.0 3.0 0.00 0.00 0.00 21 1016.2
20260904230705 94 114 2.0 6.0 0.00 0.00 0.00 19 1016.2
20260904230205 95 111 1.0 3.0 0.00 0.00 0.00 20 1016.3
20260904225706 95 24 2.0 3.0 0.00 0.00 0.00 18 1016.2
20260904225206 95 115 0.0 2.0 0.00 0.00 0.00 20 1016.3
20260904224705 95 117 2.0 7.0 0.00 0.00 0.00 17 1016.3
20260904224205 95 117 0.0 3.0 0.00 0.00 0.00 19 1016.3
20260904223705 95 26 1.0 3.0 0.00 0.00 0.00 20 1016.3
20260904223205 95 96 0.0 3.0 0.00 0.00 0.00 18 1016.3
20260904221705 94 112 2.0 3.0 0.00 0.00 0.00 17 1016.4
20260904221205 95 169 0.0 2.0 0.00 0.00 0.00 16 1016.4
20260904220205 95 148 0.0 2.0 0.00 0.00 0.00 18 1016.5
20260904215705 94 98 1.0 3.0 0.00 0.00 0.00 19 1016.5
20260904215205 94 187 1.0 3.0 0.00 0.00 0.00 19 1016.6
20260904214705 94 65 2.0 3.0 0.00 0.00 0.00 17 1016.6
20260904214205 94 147 2.0 5.0 0.00 0.00 0.00 17 1016.6
20260904213705 94 50 3.0 6.0 0.00 0.00 0.00 16 1016.6
20260904213205 94 150 1.0 2.0 0.00 0.00 0.00 18 1016.7
20260904212706 93 200 1.0 3.0 0.00 0.00 0.00 19 1016.7
20260904212205 93 246 1.0 3.0 0.00 0.00 0.00 18 1016.8
20260904211705 93 181 1.0 5.0 0.00 0.00 0.00 19 1016.8
20260904211205 93 48 1.0 3.0 0.00 0.00 0.00 19 1016.8
20260904210705 92 49 2.0 8.0 0.00 0.00 0.00 18 1016.9
20260904210205 93 55 3.0 9.0 0.00 0.00 0.00 16 1017.0
20260904205705 93 74 2.0 3.0 0.00 0.00 0.00 17 1017.0
20260904205205 93 147 1.0 5.0 0.00 0.00 0.00 21 1017.1
20260904204705 93 38 2.0 3.0 0.00 0.00 0.00 16 1017.2
20260904204205 93 46 2.0 5.0 0.00 0.00 0.00 17 1017.2
20260904202205 92 116 2.0 3.0 0.00 0.00 0.00 19 1017.4
20260904201205 92 46 2.0 3.0 0.00 0.00 0.00 18 1017.5
20260904200705 92 90 1.0 3.0 0.00 0.00 0.00 17 1017.6
20260904200205 92 73 2.0 6.0 0.00 0.00 0.00 19 1017.7
20260904195205 92 57 1.0 5.0 0.00 0.00 0.00 18 1017.8
20260904194706 92 117 1.0 3.0 0.00 0.00 0.00 19 1017.8
20260904194206 92 130 1.0 3.0 0.00 0.00 0.00 19 1017.8
20260904193705 91 151 1.0 3.0 0.00 0.00 0.00 19 1017.8
20260904193205 91 135 1.0 5.0 0.00 0.00 0.00 21 1017.9
20260904192705 91 161 2.0 5.0 0.00 0.00 0.00 19 1017.9
20260904192205 90 194 1.0 6.0 0.00 0.00 0.00 22 1018.0
20260904191705 90 113 2.0 3.0 0.00 0.00 0.00 19 1018.1
20260904190705 90 126 1.0 6.0 0.00 0.00 0.00 19 1018.1
20260904190205 90 142 1.0 5.0 0.00 0.00 0.00 21 1018.2
20260904184205 89 117 3.0 6.0 0.00 0.00 0.00 19 1018.3
20260904183705 89 95 1.0 3.0 0.00 0.00 0.00 20 1018.4
20260904183204 89 143 2.0 5.0 0.00 0.00 0.00 21 1018.4
20260904182704 89 98 3.0 6.0 0.00 0.00 0.00 19 1018.4
20260904182205 89 125 1.0 3.0 0.00 0.00 0.00 20 1018.5
20260904181705 88 100 2.0 7.0 0.00 0.00 0.00 21 1018.5
20260904181204 89 118 2.0 7.0 0.00 0.00 0.00 19 1018.5
20260904180705 89 100 2.0 6.0 0.00 0.00 0.00 20 1018.6
20260904180205 88 124 1.0 3.0 0.00 0.00 0.00 22 1018.6
20260904175205 87 149 1.0 6.0 0.00 0.00 0.00 21 1018.7
20260904174705 87 138 2.0 8.0 0.00 0.00 0.00 22 1018.7
20260904173704 87 168 2.0 6.0 0.00 0.00 0.00 24 1018.7
20260904173205 86 187 2.0 7.0 0.00 0.00 0.00 25 1018.7
20260904172705 86 114 2.0 6.0 0.00 0.00 0.00 25 1018.7
20260904172204 86 141 1.0 3.0 0.00 0.00 0.00 26 1018.7
20260904171705 86 123 1.0 3.0 0.00 0.00 0.00 25 1018.7
20260904170705 85 131 2.0 7.0 0.00 0.00 0.00 25 1018.8
20260904170205 85 145 2.0 5.0 0.00 0.00 0.00 25 1018.8
20260904164705 84 157 1.0 3.0 0.00 0.00 0.00 25 1018.9
20260904164205 83 110 2.0 3.0 0.00 0.00 0.00 24 1018.9
20260904163704 83 140 0.0 2.0 0.00 0.00 0.00 26 1018.9
20260904163205 82 140 1.0 3.0 0.00 0.00 0.00 26 1018.9
20260904162705 82 154 1.0 5.0 0.00 0.00 0.00 28 1018.9
20260904162205 81 151 2.0 6.0 0.00 0.00 0.00 29 1018.9
20260904161705 81 147 3.0 7.0 0.00 0.00 0.00 29 1018.9
20260904161205 80 153 2.0 5.0 0.00 0.00 0.00 31 1018.9
20260904160704 79 143 1.0 3.0 0.00 0.00 0.00 33 1018.9
20260904160205 79 147 1.0 3.0 0.00 0.00 0.00 35 1018.8
20260904155705 78 144 3.0 5.0 0.00 0.00 0.00 33 1018.8
20260904155205 77 155 2.0 6.0 0.00 0.00 0.00 34 1018.8
20260904154705 76 152 2.0 5.0 0.00 0.00 0.00 37 1018.7
20260904154205 75 154 3.0 6.0 0.00 0.00 0.00 38 1018.7
20260904153204 73 155 2.0 3.0 0.00 0.00 0.00 45 1018.8
20260904152204 70 115 0.0 3.0 0.00 0.00 0.00 50 1018.8
20260904151704 70 115 1.0 3.0 0.00 0.00 0.00 50 1018.8
20260904151205 68 116 1.0 3.0 0.00 0.00 0.00 53 1018.8
20260904150705 67 180 0.0 1.0 0.00 0.00 0.00 53 1018.7
20260904150205 66 180 0.0 2.0 0.00 0.00 0.00 54 1018.7
20260904145705 65 180 2.0 3.0 0.00 0.00 0.00 55 1018.7
20260904145205 65 287 0.0 0.0 0.00 0.00 0.00 60 1018.8
20260904144705 64 287 0.0 1.0 0.00 0.00 0.00 61 1018.8
20260904144205 64 287 0.0 1.0 0.00 0.00 0.00 62 1018.9
20260904143705 63 287 1.0 2.0 0.00 0.00 0.00 63 1018.9
20260904142704 62 287 0.0 0.0 0.00 0.00 0.00 64 1018.9
20260904141705 60 287 0.0 2.0 0.00 0.00 0.00 65 1018.9
20260904141205 59 287 1.0 2.0 0.00 0.00 0.00 65 1018.8
20260904140205 58 287 0.0 0.0 0.00 0.00 0.00 66 1018.7
20260904135704 57 287 0.0 0.0 0.00 0.00 0.00 67 1018.7
20260904135205 57 287 0.0 0.0 0.00 0.00 0.00 70 1018.6
20260904134705 56 287 0.0 0.0 0.00 0.00 0.00 72 1018.5
20260904134205 56 287 0.0 0.0 0.00 0.00 0.00 70 1018.5
20260904133705 55 287 0.0 0.0 0.00 0.00 0.00 70 1018.3
20260904133205 55 287 0.0 0.0 0.00 0.00 0.00 71 1018.3
20260904132705 55 287 0.0 1.0 0.00 0.00 0.00 71 1018.2
20260904132204 54 287 0.0 1.0 0.00 0.00 0.00 71 1018.1
20260904131705 54 287 0.0 1.0 0.00 0.00 0.00 71 1018.1
20260904131205 54 287 0.0 1.0 0.00 0.00 0.00 72 1018.1
20260904130204 54 287 0.0 0.0 0.00 0.00 0.00 71 1018.2
20260904125704 54 287 0.0 0.0 0.00 0.00 0.00 72 1018.2
20260904125205 54 287 0.0 0.0 0.00 0.00 0.00 71 1018.2
20260904124705 54 287 0.0 0.0 0.00 0.00 0.00 71 1018.1
20260904124205 54 287 0.0 0.0 0.00 0.00 0.00 70 1018.0
20260904123205 54 287 0.0 0.0 0.00 0.00 0.00 71 1017.9
20260904122705 55 287 0.0 0.0 0.00 0.00 0.00 70 1017.9
20260904122205 55 287 0.0 0.0 0.00 0.00 0.00 70 1017.9
20260904121705 55 287 0.0 0.0 0.00 0.00 0.00 70 1017.8
20260904121204 55 287 0.0 0.0 0.00 0.00 0.00 70 1017.7
20260904120704 55 287 0.0 0.0 0.00 0.00 0.00 69 1017.7
20260904120204 55 287 0.0 0.0 0.00 0.00 0.00 68 1017.7
20260904115704 55 287 0.0 0.0 0.00 0.00 0.00 68 1017.7
20260904115204 55 287 0.0 0.0 0.00 0.00 0.00 68 1017.7
20260904114705 56 287 0.0 0.0 0.00 0.00 0.00 67 1017.7
20260904113705 56 287 0.0 0.0 0.00 0.00 0.00 67 1017.7
20260904113204 56 287 0.0 0.0 0.00 0.00 0.00 67 1017.7
20260904112705 56 287 0.0 0.0 0.00 0.00 0.00 67 1017.6
20260904112205 56 287 0.0 0.0 0.00 0.00 0.00 66 1017.6
20260904111705 56 287 0.0 0.0 0.00 0.00 0.00 66 1017.5
20260904111204 56 287 0.0 1.0 0.00 0.00 0.00 66 1017.5
20260904110705 56 287 0.0 1.0 0.00 0.00 0.00 65 1017.5
20260904110204 57 287 0.0 0.0 0.00 0.00 0.00 65 1017.4
20260904105704 57 287 0.0 0.0 0.00 0.00 0.00 65 1017.4
20260904105204 57 287 0.0 0.0 0.00 0.00 0.00 64 1017.3
20260904104704 57 287 0.0 0.0 0.00 0.00 0.00 64 1017.3
20260904104204 58 287 0.0 0.0 0.00 0.00 0.00 63 1017.1
20260904103705 58 287 0.0 0.0 0.00 0.00 0.00 62 1017.0
20260904103204 58 287 0.0 0.0 0.00 0.00 0.00 62 1017.0
20260904102705 58 287 0.0 0.0 0.00 0.00 0.00 61 1017.1
20260904102204 58 287 0.0 0.0 0.00 0.00 0.00 60 1017.1
20260904101704 59 287 0.0 0.0 0.00 0.00 0.00 60 1017.0
20260904101204 59 287 0.0 0.0 0.00 0.00 0.00 60 1017.0
20260904100204 59 287 0.0 0.0 0.00 0.00 0.00 59 1017.1
20260904095704 60 287 0.0 0.0 0.00 0.00 0.00 59 1017.1
20260904095204 60 287 0.0 0.0 0.00 0.00 0.00 58 1017.0
20260904094705 60 287 0.0 0.0 0.00 0.00 0.00 58 1016.9
20260904094204 60 287 0.0 1.0 0.00 0.00 0.00 57 1016.8
20260904093705 60 287 0.0 0.0 0.00 0.00 0.00 56 1016.8
20260904093204 61 287 0.0 0.0 0.00 0.00 0.00 56 1016.8
20260904092704 61 287 0.0 0.0 0.00 0.00 0.00 56 1016.8
20260904092204 61 287 0.0 1.0 0.00 0.00 0.00 57 1016.7
20260904091704 61 287 0.0 2.0 0.00 0.00 0.00 56 1016.6
20260904090705 61 287 0.0 0.0 0.00 0.00 0.00 54 1016.5
20260904090204 61 287 0.0 1.0 0.00 0.00 0.00 53 1016.6
20260904085704 61 287 0.0 2.0 0.00 0.00 0.00 53 1016.6
20260904085205 61 287 0.0 1.0 0.00 0.00 0.00 54 1016.6
20260904084704 62 287 0.0 0.0 0.00 0.00 0.00 53 1016.6
20260904084205 62 287 1.0 2.0 0.00 0.00 0.00 54 1016.6
20260904083704 62 287 0.0 0.0 0.00 0.00 0.00 53 1016.5
20260904083204 62 287 0.0 0.0 0.00 0.00 0.00 53 1016.5
20260904082705 63 287 0.0 0.0 0.00 0.00 0.00 52 1016.5
20260904082205 63 287 0.0 0.0 0.00 0.00 0.00 52 1016.4
20260904081204 63 287 0.0 0.0 0.00 0.00 0.00 50 1016.4
20260904080704 64 287 0.0 0.0 0.00 0.00 0.00 50 1016.4
20260904075704 64 287 0.0 0.0 0.00 0.00 0.00 48 1016.3
20260904075204 64 287 0.0 0.0 0.00 0.00 0.00 47 1016.2
20260904074703 65 287 0.0 0.0 0.00 0.00 0.00 47 1016.2
20260904074204 65 287 0.0 0.0 0.00 0.00 0.00 47 1016.3
20260904073704 65 287 0.0 0.0 0.00 0.00 0.00 47 1016.3
20260904073204 65 287 0.0 0.0 0.00 0.00 0.00 47 1016.3
20260904072704 65 287 0.0 1.0 0.00 0.00 0.00 47 1016.4
20260904072204 65 287 0.0 1.0 0.00 0.00 0.00 47 1016.4
20260904071704 65 287 0.0 1.0 0.00 0.00 0.00 46 1016.4
20260904071204 65 287 0.0 1.0 0.00 0.00 0.00 46 1016.4
20260904070704 66 287 0.0 2.0 0.00 0.00 0.00 45 1016.5
20260904070204 66 287 0.0 0.0 0.00 0.00 0.00 46 1016.5
20260904065704 66 287 0.0 1.0 0.00 0.00 0.00 46 1016.5
20260904065204 66 287 1.0 2.0 0.00 0.00 0.00 46 1016.5
20260904064704 66 287 1.0 3.0 0.00 0.00 0.00 45 1016.6
20260904064204 67 186 0.0 1.0 0.00 0.00 0.00 45 1016.6
20260904063704 67 186 0.0 0.0 0.00 0.00 0.00 45 1016.6
20260904063205 67 186 0.0 0.0 0.00 0.00 0.00 44 1016.7
20260904062204 68 186 0.0 0.0 0.00 0.00 0.00 43 1016.7
20260904061704 68 186 0.0 0.0 0.00 0.00 0.00 43 1016.8
20260904060705 69 186 0.0 1.0 0.00 0.00 0.00 42 1016.8
20260904060204 69 186 0.0 0.0 0.00 0.00 0.00 41 1016.8
20260904055704 69 186 0.0 0.0 0.00 0.00 0.00 41 1016.8
20260904055204 69 186 0.0 0.0 0.00 0.00 0.00 41 1016.8
20260904054704 69 186 0.0 1.0 0.00 0.00 0.00 41 1016.8
20260904054204 69 186 0.0 1.0 0.00 0.00 0.00 41 1016.8
20260904053705 69 186 0.0 3.0 0.00 0.00 0.00 41 1016.9
20260904053204 68 178 1.0 8.0 0.00 0.00 0.00 42 1016.9
20260904052204 68 173 0.0 1.0 0.00 0.00 0.00 42 1016.5
20260904051703 68 173 0.0 2.0 0.00 0.00 0.00 43 1016.4
20260904051203 69 173 0.0 1.0 0.00 0.00 0.00 42 1016.4
20260904050704 69 173 0.0 1.0 0.00 0.00 0.00 42 1016.4
20260904050204 69 173 1.0 3.0 0.00 0.00 0.00 42 1016.3
20260904045704 69 331 0.0 1.0 0.00 0.00 0.00 43 1016.4
20260904045204 70 331 0.0 1.0 0.00 0.00 0.00 42 1016.3
20260904044704 70 331 0.0 1.0 0.00 0.00 0.00 42 1016.3
20260904044204 71 331 0.0 1.0 0.00 0.00 0.00 41 1016.3
20260904043704 71 331 0.0 0.0 0.00 0.00 0.00 41 1016.4
20260904043203 71 331 0.0 0.0 0.00 0.00 0.00 41 1016.4
20260904042703 72 331 0.0 0.0 0.00 0.00 0.00 39 1016.4
20260904042204 72 331 0.0 0.0 0.00 0.00 0.00 39 1016.4
20260904041704 72 331 0.0 1.0 0.00 0.00 0.00 38 1016.4
20260904041204 73 331 0.0 1.0 0.00 0.00 0.00 38 1016.3
20260904040204 73 331 0.0 0.0 0.00 0.00 0.00 37 1016.3
20260904035703 74 331 0.0 0.0 0.00 0.00 0.00 36 1016.3
20260904035203 74 331 0.0 2.0 0.00 0.00 0.00 36 1016.2
20260904034704 74 331 0.0 1.0 0.00 0.00 0.00 36 1016.3
20260904034204 75 331 0.0 1.0 0.00 0.00 0.00 35 1016.3
20260904033203 75 331 0.0 1.0 0.00 0.00 0.00 34 1016.0
20260904032705 75 331 0.0 3.0 0.00 0.00 0.00 34 1016.0
20260904032203 75 236 1.0 3.0 0.00 0.00 0.00 35 1016.0
20260904031704 76 294 0.0 2.0 0.00 0.00 0.00 35 1015.9
20260904030204 76 305 0.0 2.0 0.00 0.00 0.00 34 1015.9
20260904025204 77 224 0.0 5.0 0.00 0.00 0.00 32 1015.7
20260904024704 77 252 0.0 3.0 0.00 0.00 0.00 32 1015.7
20260904024205 77 264 1.0 3.0 0.00 0.00 0.00 32 1015.6
20260904023704 77 267 0.0 2.0 0.00 0.05 0.00 31 1015.6
20260904023204 78 267 0.0 3.0 0.00 0.08 0.00 30 1015.6
20260904022704 78 244 0.0 3.0 0.00 0.08 0.00 30 1015.5
20260904022204 78 349 0.0 3.0 0.00 0.08 0.00 30 1015.4
20260904021705 79 291 1.0 3.0 0.00 0.08 0.00 29 1015.3
20260904020706 80 261 2.0 6.0 0.00 0.08 0.00 28 1015.2
20260904020207 80 262 0.0 2.0 0.00 0.08 0.00 27 1015.1
20260904015705 81 262 1.0 2.0 0.00 0.08 0.00 27 1015.1
20260904015206 82 335 0.0 1.0 0.00 0.08 0.00 27 1015.1
20260904014705 82 335 0.0 1.0 0.00 0.08 0.00 26 1015.1
20260904014206 83 22 0.0 3.0 0.00 0.08 0.00 26 1015.1
20260904013705 83 355 2.0 8.0 0.00 0.08 0.00 24 1015.0
20260904013206 83 5 2.0 7.0 0.00 0.08 0.00 24 1015.0
20260904012205 84 22 2.0 5.0 0.00 0.08 0.00 23 1015.1
20260904011705 84 56 1.0 3.0 0.00 0.08 0.00 23 1015.0